INTELSAT 17 (IS-17) (37238 NORAD) Tracking and Keplerian Element Data

This shows tracking and keplerian element data for the satellite.

Feedback or suggestion? Click here.




ElementValue
Catalog37238
NameINTELSAT 17 (IS-17)
Epoch Orbit2445
Epoch Day201.57688319
Epoch Year2018
RAAN237.6407
Inclination0.0175
Eccentricity0.0002636
Argument of Perigee248.429
Mean Anonmoly85.8998
Mean Motion1.00271888
Decay Rate-1.8E-07
L11 37238U 10065B 18201.57688319 -.00000018 00000-0 00000-0 0 9994
L22 37238 0.0175 237.6407 0002636 248.4290 85.8998 1.00271888 24450

Live tracking and technical data element details for INTELSAT 17 (IS-17) (NORAD 37238). INTELSAT 17 (IS-17) can be tracked NOW for your location showing map with azimuth and elevation plus other details from your city location.

Track the satellite on the map from your city or location and see movement details for azimuth, elevation, latitude, longitude, range, height, and movement on the map or in text.







IsCatalogInMostPopularTable: catalog: 37238, numindb: 42
Update: records affected: 1



GetName: 37238 INTELSAT 17 (IS-17)

Hit Count: updated at: Sat, 21 Jul 2018 07:50:33 GMT